Location: Unnamed
(51.5169°N, 0.1311°W)
Time: 21:34:23
(UTC+01:00)

Tiros 1 - Pass Details

Date: 10 August 2024
Orbit: 623 x 655 km, 48.4° (Epoch: 16 September)

Event Time Altitude Azimuth Distance (km) Brightness Sun altitude
Rises 12:55:06 0° 275° (W) 2,972 10.5 53.7°
Reaches altitude 10° 12:58:59 10° 243° (WSW) 2,049 10.1 53.8°
Maximum altitude 13:00:36 12° 223° (SW) 1,933 10.2 53.8°
Drops below altitude 10° 13:02:13 10° 203° (SSW) 2,038 10.4 53.8°
Sets 13:06:04 0° 171° (S) 2,933 11.1 53.8°
